Regional Weather Roundup
Issued by NWS Pendleton, OR

Home | Current Version | Previous Version | Text Only | Print | Product List | Glossary On
Versions: 1 2 3 4 5 6 7 8 9 10 11 12 13 14 15 16 17 18 19 20 21 22 23 24 25 26 27 28 29 30 31 32 33 34 35 36 37 38 39 40 41 42 43 44 45 46 47 48 49 50
286
ASUS46 KPDT 100625
RWRPDT
PENDLETON REGIONAL WEATHER ROUNDUP
NATIONAL WEATHER SERVICE PENDLETON OREGON
1000 PM PST FRI DEC 9 2016

NOTE: FAIR INDICATES FEW OR NO CLOUDS BELOW 12,000 FEET WITH NO
SIGNIFICANT WEATHER AND/OR OBSTRUCTIONS TO VISIBILITY.

# INDICATES UNOFFICIAL STATION AND DATA

WAZ520-100710-
EAST SLOPES OF WASHINGTON CASCADES

CITY            SKY/WX      TMP DP  RH  WIND    PRES   REMARKS
#CLE ELUM HS    N/A         20  17  88  CALM    29.87F
#CLE ELUM LAKE  N/A         16  14  92  CALM    30.03F
#GLENWOOD       N/A         22  20  92  CALM    30.03F
#NELSON 3SW     N/A         15  13  92  CALM    30.27F
#RONALD 2NW     N/A         19  N/A N/A CALM    29.85F
#TROUT LAKE 1NE N/A         22  20  92  CALM    30.04F
#TROUT LAKE 1E  N/A         21  19  92  CALM    29.94F
$$

WAZ521-100710-
SIMCOE HIGHLANDS

CITY            SKY/WX      TMP DP  RH  WIND    PRES   REMARKS
#CENTERVILLE 1SWN/A         19  16  88  CALM    30.03F
#GOLDENDALE 1NE N/A         21  17  84  E3      N/A
#GOLDENDALE 4W  N/A         21  10  62  CALM    29.97F
#GOODNOE HILLS  N/A         22  18  84  E3      29.87F
#LYLE 6NE       N/A         21  20  96  CALM    30.02F
$$

WAZ026-100710-
KITTITAS VALLEY

CITY            SKY/WX      TMP DP  RH  WIND    PRES   REMARKS
ELLENSBURG AP   LGT SNOW    21  17  84  CALM    29.94F FOG
#ELLENSBURG CWU N/A         20  18  92  CALM    29.99F
#ELLENSBURG 3NE N/A         18  16  92  CALM    28.02F
#ELLENSBURG 1E  N/A         19  N/A N/A CALM    N/A
#KITTITAS 4N    N/A         21  16  81  CALM    29.96F
#KITTITAS 3S    N/A         19  17  92  CALM    30.04F
#THORP 6N       N/A         17  15  92  E3      30.07F
$$

WAZ027-100710-
YAKIMA VALLEY

CITY            SKY/WX      TMP DP  RH  WIND    PRES   REMARKS
SUNNYSIDE AP    LGT SNOW    22  21  96  CALM    30.02F
YAKIMA AIRPORT  LGT SNOW    22  18  84  W3      29.99F FOG
6HR MIN TEMP:   21; 6HR MAX TEMP:   26; 6HR PCP:  0.01;

YAKIMA-VAGABOND LGT SNOW SH 20  17  88  CALM    29.95F
6HR MIN TEMP:   18; 6HR MAX TEMP:   23; 6HR PCP:  0.01;

#DONALD 2NE     N/A         21  12  68  CALM    28.83F
#GRANDVIEW      N/A         23  20  88  CALM    30.08
#MABTON         N/A         24  23  96  CALM    30.01F
#NACHES 2SW     N/A         19  17  92  CALM    30.05S
#TERRACE HTS    N/A         21  19  92  CALM    30.03F
#TOPPENISH      N/A         23  21  92  CALM    29.98F
#WEST VALLEY    N/A         21  18  88  CALM    30.05F
#W YAKIMA       N/A         21  18  88  CALM    30.06F
#WHITE SWAN 5E  N/A         20  18  92  CALM    30.07F
#WILEY CITY 3W  N/A         19  14  80  CALM    29.93F
$$

WAZ028-100710-
LOWER COLUMBIA BASIN...WASHINGTON

CITY            SKY/WX      TMP DP  RH  WIND    PRES   REMARKS
PASCO           LGT SNOW    25  25  100 NW3     30.06F FOG
6HR MIN TEMP:   25; 6HR MAX TEMP:   26; 6HR PCP:  0.01;

PROSSER AWOS    N/A         25  23  92  CALM    30.05F
RICHLAND AWOS   CLOUDY      26  25  96  CALM    30.04F
#BENTON CITY    N/A         23  21  92  CALM    29.97F
#CONNELL 5N     N/A         22  21  96  CALM    30.06F
#CONNELL 5NW    N/A         22  20  92  CALM    30.02F
#ELTOPIA 6NW    N/A         23  22  96  CALM    28.97F
#KAHLOTUS       N/A         22  21  96  CALM    30.06F
#KENNEWICK 3S   N/A         23  21  92  CALM    30.07F
#PATERSON       N/A         24  21  88  E2      30.03F
#SAGEMOOR 2W    N/A         23  21  92  CALM    29.90F
#TOUCHET 2S     N/A         24  22  92  CALM    30.04F
#WEST PASCO     N/A         26  24  92  CALM    30.06F
$$

WAZ029-100710-
FOOTHILLS OF THE BLUES...WASHINGTON

CITY            SKY/WX      TMP DP  RH  WIND    PRES   REMARKS
WALLA WALLA AP  MXD PCPN    23  20  88  CALM    29.98F FOG
#CLYDE 6NW      N/A         22  20  92  CALM    30.06F
#DAYTON SCHOOL  N/A         22  16  77  CALM    29.97F
#LOWDEN 2SE     N/A         24  23  96  CALM    29.99F
#PLEASANT VIEW 1N/A         20  19  96  CALM    30.10F
#PRESCOTT       N/A         24  22  92  CALM    30.04F
#WHITMAN COLLEGEN/A         24  22  92  CALM    30.10F
#WAITSBURG 5S   N/A         21  20  96  CALM    30.17F
#WAITSBURG 8N   N/A         21  N/A N/A CALM    29.96F
#WALLA WALLA 5E N/A         24  22  92  CALM    N/A
#WHITMAN MISSIONN/A         25  23  92  CALM    30.08F
$$

WAZ030-100710-
BLUE MOUNTAINS...WASHINGTON

CITY            SKY/WX      TMP DP  RH  WIND    PRES   REMARKS
#DIXIE 5SE      N/A         20  18  92  SW1     29.78F
#SKI BLUEWOOD   N/A         30  29  96  CALM    29.81F
$$

ORZ009-041-WAZ024-100710-
COLUMBIA RIVER GORGE

CITY            SKY/WX      TMP DP  RH  WIND    PRES   REMARKS
HOOD RIVER AP   LGT SNOW    25  23  92  CALM    30.02F
THE DALLES AP   LGT SNOW    27  24  88  CALM    30.05F FOG
6HR MIN TEMP:   26; 6HR MAX TEMP:   28; 6HR PCP:  0.02;

#ARLINGTON AIRPON/A         23  21  92  CALM    30.07F
#ARLINGTON HS   N/A         25  22  88  CALM    29.97F
#CELILO DOT     N/A         27  20  74  CALM    N/A
#LYLE           N/A         28  26  92  CALM    30.06F
#MOSIER 1S      N/A         23  17  77  CALM    N/A
#MURDOCK        N/A         26  23  88  CALM    30.02F
#RUFUS DOT      N/A         27  23  85  SE6     N/A
#SMITHVILLE     N/A         26  24  92  E2      30.00F

$$

ORZ510-100710-
NORTH CENTRAL OREGON

CITY            SKY/WX      TMP DP  RH  WIND    PRES   REMARKS
#ANTELOPE       N/A         19  16  88  CALM    29.95F
#CHENOWITH 1W   N/A         20  19  96  E8      N/A
#COW CYN RST AREN/A         21  N/A N/A W1      N/A
#DUFUR 9E       N/A         18  16  92  CALM    30.10F
#GRASS VALLEY 1SN/A         19  17  92  CALM    29.83F
#KENT DOT       N/A         18  13  80  CALM    N/A
#MAUPIN SCHOOL  N/A         22  18  84  CALM    30.01F
#MORO SCHOOL    N/A         19  19  100 CALM    29.92F
#SHANIKO 5WSW   N/A         33  28  82  N14     N/A    WCI 23
#SHANIKO 4NW    N/A         32  32  100 S17     29.82F WCI 21
#TYGH VALLEY 2NEN/A         22  20  92  CALM    30.05F
#WAPANITIA AIRPON/A         19  17  92  CALM    30.07F
#WASCO DOT      N/A         22  19  88  E5      N/A
#WASCO 5NE      N/A         20  18  92  N1      30.06F
$$

ORZ511-100710-
CENTRAL OREGON

CITY            SKY/WX      TMP DP  RH  WIND    PRES   REMARKS
BEND AIRPORT    LGT RAIN    37  34  89  SW15    29.84F WCI 28
MADRAS AIRPORT  PTCLDY      16  16  100 MISG    29.91F
PRINEVILLE AP   MOCLDY      39  34  82  S8      29.85F
REDMOND AIRPORT CLOUDY      38  32  79  S12     29.84F WCI 30
6HR MIN TEMP:   25; 6HR MAX TEMP:   39;

#ASHWOOD SCHOOL N/A         23  20  88  CALM    29.85F
#BEND 1SW       N/A         35  34  96  W3      N/A
#BEND-AWBREY    N/A         36  34  92  W3      30.00F
#BEND-KIM LN    N/A         31  30  96  NE1     29.75F
#CULVER         N/A         17  14  88  CALM    29.99F
#CULVER 8W      N/A         18  10  70  CALM    29.88F
#LAKE BILLY CHINN/A         18  N/A N/A E3      30.03F
#MADRAS 4S      N/A         17  -3  40  CALM    29.95F
#POWELL BUTTE 3EN/A         41  33  73  S9      N/A
#POWELL BUTTE   N/A         40  33  76  W9      29.82F
#PRINEVILLE 3N  N/A         33  32  96  N1      30.01F

$$


ORZ509-100710-
EAST SLOPES OF OREGON CASCADES

CITY            SKY/WX      TMP DP  RH  WIND    PRES   REMARKS
SISTERS AWOS    N/A         28  27  96  CALM    29.82F
#BLUE BOX PASS  N/A         31  N/A N/A W1      N/A
#CAMP SHERMAN   N/A         32  30  92  CALM    30.02F
#LA PINE 4NW    N/A         34  31  89  CALM    29.99F
#LAVA BUTTE DOT N/A         34  33  96  SW5     N/A
#SISTERS AIRPOR N/A         29  29  100 N1      30.17S
#SISTERS ODOT   N/A         30  N/A N/A E2      N/A
#SISTERS 3N     N/A         29  25  85  NE5     29.82F
#SUNRIVER       N/A         34  33  96  CALM    29.97F
#TUMALO 3W      N/A         35  33  92  SE3     29.89F
#WANOGA BUTTE D N/A         29  29  100 W10     N/A

$$

ORZ044-100710-
LOWER COLUMBIA BASIN...OREGON

CITY            SKY/WX      TMP DP  RH  WIND    PRES   REMARKS
HERMISTON       MOCLDY      22  20  92  CALM    30.00F FOG
#BOARDMAN SCHOOLN/A         26  23  88  CALM    30.05F
#BOARDMAN 8SW   N/A         24  22  92  CALM    30.05F
#ECHO 8SW       N/A         22  20  92  CALM    30.02F
#I-84 EX 198 DOTN/A         23  22  96  CALM    N/A
#UMATILLA       N/A         24  19  81  CALM    29.98F
$$

ORZ507-100710-
NORTHERN FOOTHILLS OF THE BLUES

CITY            SKY/WX      TMP DP  RH  WIND    PRES   REMARKS
PENDLETON AIRPT CLOUDY      22  19  88  E6      29.94F
6HR MIN TEMP:   21; 6HR MAX TEMP:   22; 6HR PCP:  TRACE;

#ADAMS 3WNW     N/A         22  19  88  CALM    30.04F
#ATHENA         N/A         21  19  92  CALM    30.09F
#CAYUSE         N/A         23  21  92  NE2     30.04F
#HELIX SCHOOL   N/A         21  19  92  N1      30.06F
#HELIX 3N       N/A         21  19  92  CALM    29.89F
#HOLDMAN 5SE    N/A         22  20  92  NE1     29.95F
#HOLDMAN 6E     N/A         20  19  96  NE2     29.85F
#M-F GROVE ELEM N/A         23  19  84  CALM    29.96F
#M-FREEWATER 5SEN/A         22  20  92  CALM    29.96F
#PENDLETON DNTN N/A         24  18  77  CALM    29.98F
#PDT AQUATIC CTRN/A         23  20  88  CALM    29.98F
#PDT SUNRIDGE   N/A         23  20  88  CALM    29.98F
#PENDLETON 7NW  N/A         23  18  81  CALM    30.24S
#PILOT ROCK 1S  N/A         22  16  77  N1      29.94F
#PILOT ROCK     N/A         23  19  84  NE2     29.95F
#TUTUILLA       N/A         23  20  88  CALM    30.03F
#UMAPINE 2E     N/A         24  22  92  CALM    29.98F
#WESTON SCHOOL  N/A         20  16  84  CALM    29.84F

$$

ORZ508-100710-
SOUTHERN FOOTHILLS OF THE BLUES

CITY            SKY/WX      TMP DP  RH  WIND    PRES   REMARKS
LEXINGTON       CLOUDY      21  21  100 CALM    29.96F FOG
#AJAX           N/A         19  11  70  CALM    27.67F
#CONDON SCHOOL  N/A         18  16  92  CALM    29.82F
#CONDON 5W      N/A         24  21  88  CALM    29.79F
#HEPPNER EOC    N/A         20  18  92  CALM    29.98F
#HEPPNER 4NE    N/A         19  17  92  CALM    30.05F
#LEXINGTON 2SE  N/A         22  19  88  CALM    29.89F
#MIKKALO        N/A         21  17  84  E1      30.04F
#OLEX 4N        N/A         21  19  92  CALM    29.98F
#RUGGS 5NE      N/A         22  21  96  NW5     30.01F
#RUGGS 2SW      N/A         20  18  92  CALM    30.06F

$$

ORZ502-503-100710-
BLUE MOUNTAINS

CITY            SKY/WX      TMP DP  RH  WIND    PRES   REMARKS
MEACHAM         LGT SNOW    32  28  85  CALM    29.85F FOG
#BATTLE MTN DOT N/A         32  31  96  S7      N/A
#GREENHORN 9SW  N/A         27  27  100 CALM    26.10F
#HEPPNER 15SE   N/A         35  32  89  CALM    29.84F
#LADD CYN SMT   N/A         26  25  96  SE17    N/A    WCI 13
#LADD CREEK ODOTN/A         29  26  88  SW3     N/A
#LONG CREEK HS  N/A         39  37  92  SW14G26 29.85F WCI 31
#N POWDER DOT   N/A         26  25  96  SW3     N/A
#PIKES PEAK     N/A         34  32  92  S5      27.99S
#TOLLGATE       N/A         31  30  96  CALM    29.71S
#TROY SCHOOL    N/A         29  27  92  CALM    29.89F
#UKIAH          N/A         29  27  92  CALM    29.92F
#WESTON 4E      N/A         33  32  96  E7      30.01F
$$

ORZ505-100710-
JOHN DAY BASIN

CITY            SKY/WX      TMP DP  RH  WIND    PRES   REMARKS
JOHN DAY        RAIN        37  36  96  E7      29.88F
#ANTELOPE 9ESE  N/A         23  19  84  CALM    N/A
#DAYVILLE SCHOOLN/A         30  27  88  CALM    29.87F
#MITCHELL       N/A         24  23  96  CALM    30.04F
#MONUMENT HS    N/A         29  26  88  CALM    29.93F
#MT. VERNON 5SE N/A         35  33  92  CALM    29.83F
#SPRAY SCHOOL   N/A         28  N/A N/A CALM    N/A
$$

ORZ506-100710-
OCHOCO AND JOHN DAY HIGHLANDS

CITY            SKY/WX      TMP DP  RH  WIND    PRES   REMARKS
#HORSE RIDGE DO N/A         38  32  79  SE9     N/A
#KEYES SMT DOT  N/A         37  32  82  S6      N/A
#PAULINA SCHOOL N/A         38  34  85  SW5     N/A
#PINE MTN OBS   N/A         30  29  96  SE17G37 N/A    WCI 18
#PRAIRIE CITY   N/A         35  32  89  CALM    30.06F
#SENECA         N/A         34  N/A N/A W6      N/A
#SENECA 9NW     N/A         32  31  96  CALM    29.99F
$$

ORZ049-100710-
GRANDE RONDE VALLEY

CITY            SKY/WX      TMP DP  RH  WIND    PRES   REMARKS
LA GRANDE       CLOUDY      34  23  64  CALM    29.90F
#COVE           N/A         29  29  100 CALM    29.93F
#COVE SCHOOL    N/A         29  27  92  CALM    29.92F
#COVE 6NW       N/A         31  27  85  SE2     30.03F
#ELGIN 3N       N/A         29  25  85  CALM    29.89F
#ELGIN 1E       N/A         31  27  85  CALM    N/A
#IMBLER SCHOOL  N/A         30  28  92  S7      29.88F
#ISLAND CITY 4N N/A         34  33  96  CALM    29.90S
#UNION 1S       N/A         31  27  85  E16G28  30.03F WCI 20
$$

ORZ050-100710-
WALLOWA COUNTY

CITY            SKY/WX      TMP DP  RH  WIND    PRES   REMARKS
JOSEPH AIRPORT  LGT SNOW    25  25  100 CALM    29.86F
#IMNAHA SCHOOL  N/A         28  26  92  N3      29.94F
#JOSEPH 3N      N/A         23  18  81  CALM    29.91R
#JOSEPH 3W      N/A         30  28  92  CALM    29.71F
#LOSTINE        N/A         24  22  92  CALM    29.88F
#LOSTINE 3SE    N/A         24  23  96  CALM    29.89F
#MT HOWARD 8000 N/A         26  24  92  SW15G38 29.75F WCI 14
#PROMISE 1S     N/A         26  24  92  CALM    30.12F
#WALLOWA SCHOOL N/A         24  23  96  CALM    29.89F



$$



USA.gov is the U.S. government's official web portal to all federal, state and local government web resources and services.